#timestamp,LO_Frequency,Hit,StdDev 
1692374415.2,286047000.3,N
1692374435.9,286047002.6,N
1692374455.7,286046999.8,N
1692374475.6,286047000.1,N
1692374495.4,286046999.7,N
1692374515.2,286047002.7,N
1692374535.1,286047002.2,N
1692374536.0,286047002.2,N
1692374555.8,286047002.2,N
1692374575.7,286047002.2,N
1692374595.5,286046999.7,N
1692374615.3,286047002.3,N
1692374635.2,286046999.8,N
1692374655.9,286047002.4,N
1692374675.7,286047000.2,N
1692374695.6,286046999.7,N
1692374715.4,286046999.8,N
1692374735.2,286047002.2,N
1692374755.1,286047002.0,N
1692374756.0,286047002.0,N
1692374775.8,286047002.1,N
1692374795.7,286047002.7,N
1692374815.5,286047000.3,N
1692374835.3,286046999.8,N
1692374855.2,286046999.8,N
1692374875.0,286047000.4,N
1692374875.9,286047000.4,N
1692374895.8,286047001.2,N
1692374915.6,286047000.7,N
1692374935.4,286047001.0,N
1692374955.3,286047000.2,N
1692374975.1,286047002.8,N
1692374995.8,286047000.4,N
1692375015.7,286047000.4,N
1692375035.5,286047000.4,N
1692375055.4,286046999.7,N
1692375075.2,286047000.0,N
1692375095.0,286047002.2,N
1692375095.9,286047002.2,N
1692375115.8,286047002.1,N
1692375135.6,286047002.1,N
1692375155.4,286047002.2,N
1692375175.3,286047002.7,N
1692375195.1,286047011.9,Y
1692375215.9,286047002.1,P
1692375235.7,286047002.0,P
1692375255.5,286047002.0,P
1692375275.4,286047000.1,N
1692375295.2,286047000.5,N
1692375315.0,286046999.9,N
1692375315.9,286046999.9,N
1692375335.8,286047000.0,N
1692375355.6,286047000.3,N
1692375375.5,286046999.9,N
1692375395.3,286047000.9,N
1692375415.1,286047000.4,N
1692375435.9,286047000.4,N
1692375455.7,286047000.8,N
1692375475.5,286047001.2,N
1692375495.4,286046998.4,N
1692375515.2,286046998.5,N
1692375535.1,286047000.6,N
1692375536.0,286047000.6,N
1692375555.8,286047001.0,N
1692375575.6,286047000.8,N
1692375595.5,286046998.2,N
1692375615.3,286047000.7,N
1692375635.1,286046998.2,N
1692375655.9,286047001.2,N
1692375675.7,286047000.4,N
1692375695.6,286047000.6,N
1692375715.4,286046998.3,N
1692375735.2,286047000.8,N
1692375755.1,286047001.1,N
1692375756.0,286047001.1,N
1692375775.8,286046999.9,N
1692375795.6,286047000.0,N
1692375815.5,286047002.4,N
1692375835.3,286047002.5,N
1692375855.2,286047001.9,N
1692375875.9,286047001.6,N
1692375895.7,286047001.4,N
1692375915.6,286047004.3,Y
1692375935.4,286047001.8,P
1692375955.2,286047002.5,P
1692375975.1,286047002.4,N
1692375976.0,286047002.4,N
1692375995.8,286047002.0,N
1692376015.7,286047001.5,N
1692376035.5,286047001.4,N
1692376055.3,286047001.3,N
1692376075.2,286047001.3,N
1692376095.0,286047004.2,Y
1692376095.9,286047004.2,P
1692376115.8,286046999.9,N
1692376135.6,286047000.4,N
1692376155.4,286047000.1,N
1692376175.3,286047000.4,N
1692376195.1,286047000.3,N
1692376215.8,286047000.6,N
1692376235.7,286047000.7,N
1692376255.5,286047000.6,N
1692376275.3,286047001.1,N
1692376295.2,286046998.2,N
1692376315.0,286047000.8,N
1692376315.9,286047000.8,N
1692376335.8,286046998.6,N
1692376355.6,286046998.3,N
1692376375.4,286046998.6,N
1692376395.3,286046998.7,N
1692376415.1,286046998.5,N
1692376435.8,286046998.2,N
1692376455.7,286046998.4,N
1692376475.5,286046999.1,N
1692376495.4,286046999.6,N
1692376515.2,286046996.9,N
1692376535.0,286046996.8,N
1692376535.9,286046996.8,N
1692376555.8,286046996.9,N
1692376575.6,286046997.1,N
1692376595.4,286046997.1,N
1692376615.3,286046997.2,N
1692376635.1,286046996.7,N
1692376655.9,286046994.9,N
1692376675.7,286046997.2,N
1692376695.5,286046997.2,N
1692376715.4,286046997.1,N
1692376735.2,286046995.0,Y
1692376755.0,286046997.5,P
1692376756.0,286046997.5,P
1692376775.8,286046997.4,P
1692376795.6,286046996.6,Y
1692376815.5,286047000.4,P
1692376835.3,286047000.7,N
1692376855.1,286047000.1,N
1692376875.9,286047002.3,N
1692376895.7,286047002.8,N
1692376915.6,286047000.7,N
1692376935.4,286047000.7,N
1692376955.2,286046998.2,N
1692376975.1,286046999.1,N
1692376976.0,286046999.1,N
1692376995.8,286046999.0,N
1692377015.6,286046999.3,N
1692377035.5,286046997.0,N
1692377055.3,286046999.5,N
1692377075.1,286046996.5,N
1692377095.9,286046999.6,N
1692377115.7,286046996.7,N
1692377135.6,286046996.6,N
1692377155.4,286046996.8,N
1692377175.2,286046996.6,N
1692377195.1,286046996.9,N
1692377196.0,286046996.9,N
1692377215.8,286046997.0,N
1692377235.6,286046999.6,N
1692377255.5,286046996.5,N
1692377275.3,286046999.1,N
1692377295.2,286046999.1,N
1692377315.9,286046998.3,N
1692377335.7,286047001.2,N
1692377355.6,286047001.1,N
1692377375.4,286046998.1,N
1692377395.3,286046998.7,N
1692377415.1,286046998.9,N
1692377435.8,286046999.5,N
1692377455.7,286046999.2,N
1692377475.5,286046999.5,N
1692377495.4,286046999.3,N
1692377515.2,286046999.3,N
1692377535.0,286046999.2,N
1692377535.9,286046999.2,N
1692377555.8,286046996.5,N
1692377575.6,286046996.6,N
1692377595.5,286046996.7,N
1692377615.3,286046996.8,N
1692377635.1,286046994.9,Y
1692377655.9,286046998.7,P
1692377675.7,286046999.0,P
1692377695.5,286046999.1,N
1692377715.4,286046998.5,Y
1692377735.2,286046998.1,P
1692377755.1,286047001.1,P
1692377756.0,286047001.1,N
1692377775.8,286047000.2,N
1692377795.0,286047000.6,N
1692377795.9,286047000.6,N
1692377815.8,286046998.2,N
1692377835.6,286047000.7,N
1692377855.4,286047001.2,N
1692377875.3,286047000.7,N
1692377895.1,286046998.5,N
1692377915.8,286046999.3,N
1692377935.7,286046999.4,N
1692377955.5,286046996.6,Y
1692377975.4,286046999.6,P
1692377995.2,286046999.0,P
